11:28
Airports
History
Links
Donate
Help keep this website running!
PayPal
Bitcoin
This page is community maintained. The information is intended for PC simulator navigation or reference.
Always use approved charts for navigation.
W59
Hinton-Alderson
Hinton-Alderson (W59)
Pence Springs, West Virginia, United States (24962)
4
Lat/Lng:37° 40' 46.43" N / 80° 42' 37.29" W
37.679565 / -80.710358
Elevation:1520'ft / 463mMSL
ID / ICAO:W59
Runways:1
Longest:10-28
Grass 821m / 2,693ft
Nearby Weather11:15 GMT 2018-01-23
Nearby weather at KLWB, Greenbrier Valley located 21.0 nautical miles from W59
Altimeter: 29.70
Visibility: 10.0 statute miles
Wind: 9 knots (from 260°)
Temp: 11°c / 52°f
Humidity: 87.5%

METAR: KLWB 231115Z AUTO 26009G16KT 10SM -RA SCT020 BKN031 BKN049 11/09 A2970 RMK AO2 P0004 T01060087

(Powered by phpweather)
Nearby VORs <50NM
Nearby NDBs
Runway 10 / 28
Dimensions:820.8 x 15.2m 2693' x 50'ft
Surface:Grass
Runway 10 [A]Runway 28 [B]
Heading:093°TH 273°TH
Lat:
Lng:
37° 40' 47.36"N
80° 42' 54.09"W
37° 40' 45.5"N
80° 42' 20.49"W
User Notes and Comments
37° 40' 46.43" N / 80° 42' 37.29" W
Distance To
Airport ID:
Nearby Airports
(R) Rainelle 18.6 NM
WV30 N 358°
4 Rainelle 18.6 NM
9W4 N 358°
4 Peterstown 19.9 NM
WV10 SSW 195°
(C) Greenbrier Valley 21.0 NM
KLWB ( WX ) NE 53°
(U) Raleigh County Memorial 23.8 NM
KBKW ( WX ) WNW 288°
(U) Fayette 32.8 NM
I89 NW 317°
(R) New River Gorge 34.3 NM
WV32 NW 325°
VFR Chart
Flight Planning at SkyVector.com